HB9CYX-13 Weather Reports


time (UTC)temp
C
wind
direction
speed
KPH
gust
KPH
rain 1hr
cm
rain 24hr
cm
rain mn
cm
humidity
%
barometer
mb
20260502231919 14 315 0.0 8.0 0.00 0.00 0.00 67 1018.6
20260502230701 15 315 0.0 8.0 0.00 0.00 0.00 66 1018.6
20260502225443 15 315 0.0 8.0 0.00 0.00 0.00 64 1018.4
20260502224225 15 315 4.8 8.0 0.00 0.00 0.00 63 1018.4
20260502223007 16 315 1.6 8.0 0.00 0.00 0.00 62 1018.3
20260502221749 16 270 0.0 4.8 0.00 0.00 0.00 61 1018.2
20260502220531 16 315 0.0 4.8 0.00 0.00 0.00 60 1018.2
20260502215313 16 45 1.6 22.5 0.00 0.00 0.00 59 1018.1
20260502214055 16 315 0.0 22.5 0.00 0.00 0.00 58 1018.0
20260502212837 16 270 0.0 22.5 0.00 0.00 0.00 56 1017.9
20260502211620 16 270 0.0 22.5 0.00 0.00 0.00 57 1017.9
20260502210402 16 112 0.0 22.5 0.00 0.00 0.00 58 1018.0
20260502205144 16 315 0.0 22.5 0.00 0.00 0.00 58 1018.0
20260502203926 16 315 0.0 22.5 0.00 0.00 0.00 57 1018.0
20260502202708 16 315 0.0 22.5 0.00 0.00 0.00 56 1017.9
20260502201450 16 315 0.0 22.5 0.00 0.00 0.00 55 1017.9
20260502200232 17 315 1.6 22.5 0.00 0.00 0.00 54 1017.8
20260502195009 17 315 0.0 22.5 0.00 0.00 0.00 53 1017.7
20260502193751 18 315 0.0 22.5 0.00 0.00 0.00 50 1017.5
20260502192533 18 225 0.0 22.5 0.00 0.03 0.00 51 1017.4
20260502191315 18 135 0.0 22.5 0.00 0.03 0.00 52 1017.4
20260502190057 18 90 0.0 22.5 0.00 0.03 0.00 53 1017.3
20260502184839 18 90 0.0 22.5 0.00 0.03 0.00 50 1017.2
20260502183621 19 90 0.0 22.5 0.00 0.03 0.00 48 1016.9
20260502182404 20 90 0.0 22.5 0.00 0.03 0.00 47 1016.6
20260502181146 21 90 0.0 22.5 0.00 0.03 0.00 45 1016.6
20260502162007 28 180 9.7 22.5 0.00 0.03 0.00 25 1015.6
20260502160745 28 292 3.2 22.5 0.00 0.03 0.00 25 1015.7
20260502151819 30 270 0.0 22.5 0.00 0.03 0.00 24 1015.9
20260502150558 28 135 1.6 22.5 0.00 0.03 0.00 25 1016.1
20260502130223 27 225 8.0 22.5 0.00 0.03 0.00 29 1018.3
20260502123740 27 180 9.7 22.5 0.00 0.03 0.00 32 1018.6
20260502122518 28 90 4.8 22.5 0.00 0.05 0.00 30 1018.7
20260502121257 27 180 0.0 22.5 0.00 0.05 0.00 30 1019.0
20260502114814 27 225 3.2 22.5 0.00 0.05 0.00 30 1019.4
20260502113552 27 135 4.8 22.5 0.00 0.05 0.00 31 1019.7
20260502112331 26 270 14.5 22.5 0.00 0.05 0.00 30 1020.0
20260502111110 25 90 12.9 22.5 0.00 0.05 0.00 32 1020.4
20260502105848 26 292 0.0 20.9 0.00 0.05 0.00 33 1020.5
20260502104627 25 135 8.0 20.9 0.00 0.05 0.00 32 1020.9
20260502103405 25 315 8.0 17.7 0.00 0.05 0.00 32 1021.0
20260502102144 25 135 1.6 17.7 0.00 0.05 0.00 33 1021.3
20260502100922 25 270 4.8 17.7 0.00 0.05 0.00 33 1021.5
20260502090812 22 0 8.0 17.7 0.00 0.05 0.00 36 1022.7